DL6MAA-11 Weather Reports


time (UTC)temp
C
wind
direction
speed
KPH
gust
KPH
rain 1hr
cm
rain 24hr
cm
rain mn
cm
humidity
%
barometer
mb
20260904075653 22 260 3.2 0.0 0.00 0.00 0.00 54 1018.4
20260904075201 22 360 3.2 0.0 0.00 0.00 0.00 54 1018.4
20260904074703 21 275 3.2 0.0 0.00 0.00 0.00 55 1018.4
20260904074154 21 202 3.2 0.0 0.00 0.00 0.00 55 1018.6
20260904073706 21 213 3.2 0.0 0.00 0.00 0.00 55 1018.6
20260904073157 21 360 1.6 0.0 0.00 0.00 0.00 57 1018.6
20260904072703 20 238 1.6 0.0 0.00 0.00 0.00 59 1018.8
20260904072211 20 360 1.6 0.0 0.00 0.00 0.00 60 1018.8
20260904071656 20 178 1.6 0.0 0.00 0.00 0.00 60 1018.8
20260904071154 19 360 1.6 0.0 0.00 0.00 0.00 60 1018.7
20260904070709 19 269 1.6 0.0 0.00 0.00 0.00 62 1018.7
20260904070153 18 283 1.6 0.0 0.00 0.00 0.00 63 1018.7
20260904065706 18 209 0.0 0.0 0.00 0.00 0.00 65 1018.7
20260904065207 18 198 0.0 0.0 0.00 0.00 0.00 66 1018.7
20260904064656 18 196 0.0 0.0 0.00 0.00 0.00 67 1018.7
20260904064202 17 360 0.0 0.0 0.00 0.00 0.00 66 1018.8
20260904063708 17 192 0.0 0.0 0.00 0.00 0.00 67 1018.8
20260904063211 17 190 0.0 0.0 0.00 0.00 0.00 67 1018.8
20260904062659 17 182 0.0 0.0 0.00 0.00 0.00 67 1018.8
20260904062204 17 217 0.0 0.0 0.00 0.00 0.00 67 1018.8
20260904061653 17 176 0.0 0.0 0.00 0.00 0.00 67 1018.8
20260904061157 17 185 0.0 0.0 0.00 0.00 0.00 68 1018.8
20260904060706 16 214 0.0 0.0 0.00 0.00 0.00 68 1018.8
20260904060150 16 360 0.0 0.0 0.00 0.00 0.00 68 1018.8
20260904055653 16 199 0.0 0.0 0.00 0.00 0.00 68 1018.9
20260904055204 16 199 0.0 0.0 0.00 0.00 0.00 68 1018.9
20260904054659 16 197 0.0 0.0 0.00 0.00 0.00 67 1018.9
20260904054153 16 360 0.0 0.0 0.00 0.00 0.00 66 1018.8
20260904053707 16 196 0.0 0.0 0.00 0.00 0.00 66 1018.8
20260904053156 17 197 0.0 0.0 0.00 0.00 0.00 65 1018.8
20260904052658 17 202 0.0 0.0 0.00 0.00 0.00 65 1018.9
20260904052200 17 196 0.0 0.0 0.00 0.00 0.00 65 1018.9
20260904051711 17 196 0.0 0.0 0.00 0.00 0.00 65 1018.9
20260904051156 17 197 0.0 0.0 0.00 0.00 0.00 65 1018.7
20260904050659 17 196 0.0 0.0 0.00 0.00 0.00 64 1018.7
20260904050207 17 198 0.0 0.0 0.00 0.00 0.00 64 1018.7
20260904045650 17 196 0.0 0.0 0.00 0.00 0.00 65 1018.7
20260904045150 17 360 0.0 0.0 0.00 0.00 0.00 64 1018.7
20260904044658 17 205 0.0 0.0 0.00 0.00 0.00 64 1018.7
20260904044210 17 196 0.0 0.0 0.00 0.00 0.00 64 1018.8
20260904043656 17 197 0.0 0.0 0.00 0.00 0.00 64 1018.8
20260904043203 17 196 0.0 0.0 0.00 0.00 0.00 64 1018.8
20260904042651 17 196 0.0 0.0 0.00 0.00 0.00 63 1018.8
20260904042157 17 197 0.0 0.0 0.00 0.00 0.00 64 1018.8
20260904041659 17 198 0.0 0.0 0.00 0.00 0.00 63 1018.8
20260904041200 17 198 0.0 0.0 0.00 0.00 0.00 63 1020.0
20260904040705 17 198 0.0 0.0 0.00 0.00 0.00 63 1020.0
20260904040208 17 206 0.0 0.0 0.00 0.00 0.00 63 1020.0
20260904035650 17 360 0.0 0.0 0.00 0.00 0.00 63 1020.0
20260904035159 17 200 0.0 0.0 0.00 0.00 0.00 63 1020.0
20260904034650 17 202 0.0 0.0 0.00 0.00 0.00 63 1020.0
20260904034159 17 202 0.0 0.0 0.00 0.00 0.00 63 1020.0
20260904033704 17 203 0.0 0.0 0.00 0.00 0.00 63 1020.0
20260904033204 17 204 0.0 0.0 0.00 0.00 0.00 63 1020.0
20260904032706 17 204 0.0 0.0 0.00 0.00 0.00 63 1020.0
20260904032207 17 204 0.0 0.0 0.00 0.00 0.00 63 1020.0
20260904031655 17 203 0.0 0.0 0.00 0.00 0.00 63 1020.0
20260904031158 17 203 0.0 0.0 0.00 0.00 0.00 62 1019.9
20260904030659 17 215 0.0 0.0 0.00 0.00 0.00 62 1019.9
20260904030204 17 194 0.0 0.0 0.00 0.00 0.00 62 1019.9
20260904025705 17 360 0.0 0.0 0.00 0.00 0.00 62 1019.9
20260904025204 17 254 0.0 0.0 0.00 0.00 0.00 62 1019.9
20260904024703 17 360 0.0 0.0 0.00 0.00 0.00 62 1019.9
20260904024211 17 184 0.0 0.0 0.00 0.00 0.00 62 1020.0
20260904023654 17 185 0.0 0.0 0.00 0.00 0.00 63 1020.0
20260904023159 17 186 0.0 0.0 0.00 0.00 0.00 63 1020.0
20260904022653 17 360 0.0 0.0 0.00 0.00 0.00 63 1020.0
20260904022208 17 170 0.0 0.0 0.00 0.00 0.00 63 1020.0
20260904021701 17 164 0.0 0.0 0.00 0.00 0.00 63 1020.0
20260904021156 17 201 0.0 0.0 0.00 0.00 0.00 63 1020.0
20260904020658 17 175 0.0 0.0 0.00 0.00 0.00 63 1020.0
20260904020201 17 176 0.0 0.0 0.00 0.00 0.00 63 1020.0
20260904015703 17 188 0.0 0.0 0.00 0.00 0.00 63 1020.2
20260904015209 17 220 0.0 0.0 0.00 0.00 0.00 63 1020.2
20260904014705 17 222 0.0 0.0 0.00 0.00 0.00 63 1020.2
20260904014205 17 224 0.0 0.0 0.00 0.00 0.00 63 1020.4
20260904013708 17 196 0.0 0.0 0.00 0.00 0.00 63 1020.4
20260904013153 17 229 0.0 0.0 0.00 0.00 0.00 63 1020.4
20260904012659 17 217 0.0 0.0 0.00 0.00 0.00 63 1020.5
20260904012202 17 221 0.0 0.0 0.00 0.00 0.00 64 1020.5
20260904011705 17 217 0.0 0.0 0.00 0.00 0.00 64 1020.5
20260904011204 17 187 0.0 0.0 0.00 0.00 0.00 64 1020.6
20260904010708 17 211 0.0 0.0 0.00 0.00 0.00 64 1020.6
20260904010155 17 217 0.0 0.0 0.00 0.00 0.00 65 1020.6
20260904005659 17 198 0.0 0.0 0.00 0.00 0.00 66 1019.7
20260904005204 17 219 0.0 0.0 0.00 0.00 0.00 66 1019.7
20260904004710 16 198 0.0 0.0 0.00 0.00 0.00 67 1019.7
20260904004157 16 360 0.0 0.0 0.00 0.00 0.00 68 1019.8
20260904003655 16 236 0.0 0.0 0.00 0.00 0.00 68 1019.8
20260904003156 16 166 0.0 0.0 0.00 0.00 0.00 69 1019.8
20260904002705 16 186 0.0 0.0 0.00 0.00 0.00 70 1019.8
20260904002208 16 207 0.0 0.0 0.00 0.00 0.00 71 1019.8
20260904001711 16 241 0.0 0.0 0.00 0.00 0.00 72 1019.8
20260904001202 16 245 0.0 0.0 0.00 0.00 0.00 72 1020.0
20260904000656 16 271 0.0 0.0 0.00 0.00 0.00 73 1020.0
20260904000151 16 271 0.0 0.0 0.00 0.00 0.00 73 1020.0
20260903235701 16 271 0.0 0.0 0.00 0.00 0.00 73 1020.2
20260903235207 16 271 0.0 0.0 0.00 0.00 0.00 73 1020.2
20260903234708 16 271 0.0 0.0 0.00 0.00 0.00 73 1020.2
20260903234157 16 271 0.0 0.0 0.00 0.00 0.00 73 1020.2
20260903233711 16 271 0.0 0.0 0.00 0.00 0.00 73 1020.2
20260903233157 16 271 0.0 0.0 0.00 0.00 0.00 73 1020.2
20260903232702 16 360 0.0 0.0 0.00 0.00 0.00 73 1020.2
20260903232154 16 271 0.0 0.0 0.00 0.00 0.00 73 1020.2
20260903231713 16 271 0.0 0.0 0.00 0.00 0.00 72 1020.2
20260903231155 16 271 0.0 0.0 0.00 0.00 0.00 72 1020.3
20260903230702 16 360 0.0 0.0 0.00 0.00 0.00 72 1020.3
20260903230156 16 271 0.0 0.0 0.00 0.00 0.00 72 1020.3
20260903225701 16 272 0.0 0.0 0.00 0.00 0.00 72 1020.3
20260903225210 16 271 0.0 0.0 0.00 0.00 0.00 71 1020.3
20260903224655 16 271 0.0 0.0 0.00 0.00 0.00 71 1020.3
20260903224158 16 271 0.0 0.0 0.00 0.00 0.00 71 1020.3
20260903223656 16 271 0.0 0.0 0.00 0.00 0.00 71 1020.3
20260903223158 16 271 0.0 0.0 0.00 0.00 0.00 71 1020.3
20260903222702 16 274 0.0 0.0 0.00 0.00 0.00 71 1020.4
20260903222210 16 271 0.0 0.0 0.00 0.00 0.00 71 1020.4
20260903221712 16 271 0.0 0.0 0.00 0.00 0.00 71 1020.4
20260903221159 16 271 0.0 0.0 0.00 0.00 0.00 71 1020.8
20260903220704 16 271 0.0 0.0 0.00 0.00 0.00 71 1020.8
20260903220203 16 271 0.0 0.0 0.00 0.00 0.00 70 1020.8
20260903215711 16 271 0.0 0.0 0.00 0.00 0.00 70 1020.4
20260903215200 16 271 0.0 0.0 0.00 0.00 0.00 69 1020.4
20260903214705 16 271 0.0 0.0 0.00 0.00 0.00 69 1020.4
20260903214208 16 271 0.0 0.0 0.00 0.00 0.00 69 1020.4
20260903213713 16 271 0.0 0.0 0.00 0.00 0.00 68 1020.4
20260903213153 16 271 0.0 0.0 0.00 0.00 0.00 67 1020.4
20260903212658 16 271 0.0 0.0 0.00 0.00 0.00 67 1020.3
20260903212204 16 360 0.0 0.0 0.00 0.00 0.00 68 1020.3
20260903211704 16 271 0.0 0.0 0.00 0.00 0.00 68 1020.3
20260903211210 16 271 0.0 0.0 0.00 0.00 0.00 67 1020.3
20260903210655 17 271 0.0 0.0 0.00 0.00 0.00 67 1020.3
20260903210202 17 271 0.0 0.0 0.00 0.00 0.00 67 1020.3
20260903205708 17 271 0.0 0.0 0.00 0.00 0.00 67 1020.4
20260903205203 17 271 0.0 0.0 0.00 0.00 0.00 67 1020.4
20260903204655 17 275 0.0 0.0 0.00 0.00 0.00 66 1020.4
20260903204158 17 271 0.0 0.0 0.00 0.00 0.00 66 1020.6
20260903203704 17 271 0.0 0.0 0.00 0.00 0.00 66 1020.6
20260903203209 17 271 0.0 0.0 0.00 0.00 0.00 65 1020.6
20260903202711 17 271 0.0 0.0 0.00 0.00 0.00 65 1020.7
20260903202211 18 360 0.0 0.0 0.00 0.00 0.00 65 1020.7
20260903201651 18 271 0.0 0.0 0.00 0.00 0.00 64 1020.7
20260903201152 18 271 0.0 0.0 0.00 0.00 0.00 63 1020.4
20260903200658 18 271 0.0 0.0 0.00 0.00 0.00 63 1020.4
20260903200157 18 271 0.0 0.0 0.00 0.00 0.00 62 1020.4
20260903195705 18 360 0.0 0.0 0.00 0.00 0.00 62 1020.3
20260903195213 18 271 0.0 0.0 0.00 0.00 0.00 61 1020.3
20260903194711 18 271 0.0 0.0 0.00 0.00 0.00 61 1020.3
20260903194154 18 271 0.0 0.0 0.00 0.00 0.00 61 1019.9
20260903193655 18 271 0.0 0.0 0.00 0.00 0.00 60 1019.9
20260903193157 19 306 0.0 0.0 0.00 0.00 0.00 60 1019.9
20260903192656 19 317 0.0 0.0 0.00 0.00 0.00 59 1019.8
20260903192201 19 317 0.0 0.0 0.00 0.00 0.00 59 1019.8
20260903191703 20 317 0.0 0.0 0.00 0.00 0.00 58 1019.8
20260903191206 20 317 0.0 0.0 0.00 0.00 0.00 58 1020.2
20260903190707 20 317 0.0 0.0 0.00 0.00 0.00 57 1020.2
20260903190207 20 317 0.0 0.0 0.00 0.00 0.00 57 1020.2
20260903185706 20 317 0.0 0.0 0.00 0.00 0.00 57 1020.2
20260903185207 20 317 0.0 0.0 0.00 0.00 0.00 56 1020.2
20260903184714 20 206 0.0 0.0 0.00 0.00 0.00 55 1020.2
20260903184213 20 206 0.0 0.0 0.00 0.00 0.00 55 1019.7
20260903183712 21 205 0.0 0.0 0.00 0.00 0.00 55 1019.7
20260903183213 21 204 0.0 0.0 0.00 0.00 0.00 55 1019.7
20260903182656 21 360 0.0 0.0 0.00 0.00 0.00 55 1019.6
20260903182158 21 247 0.0 0.0 0.00 0.00 0.00 54 1019.6
20260903181700 21 360 0.0 0.0 0.00 0.00 0.00 54 1019.6
20260903181202 21 360 0.0 0.0 0.00 0.00 0.00 53 1019.8
20260903180703 21 360 0.0 0.0 0.00 0.00 0.00 53 1019.8
20260903180205 21 360 0.0 0.0 0.00 0.00 0.00 53 1019.8
20260903175710 21 147 0.0 0.0 0.00 0.00 0.00 52 1019.8
20260903175156 21 244 0.0 0.0 0.00 0.00 0.00 52 1019.8
20260903174659 22 219 0.0 0.0 0.00 0.00 0.00 52 1019.8
20260903174210 22 202 0.0 0.0 0.00 0.00 0.00 52 1019.8
20260903173713 22 225 0.0 0.0 0.00 0.00 0.00 52 1019.8
20260903173212 22 219 0.0 0.0 0.00 0.00 0.00 52 1019.8
20260903172711 22 360 0.0 0.0 0.00 0.00 0.00 52 1019.8
20260903172156 22 200 0.0 0.0 0.00 0.00 0.00 51 1019.8
20260903171706 22 203 0.0 0.0 0.00 0.00 0.00 51 1019.8
20260903171210 22 206 0.0 0.0 0.00 0.00 0.00 51 1019.8
20260903170655 22 245 0.0 0.0 0.00 0.00 0.00 50 1019.8
20260903170154 22 360 1.6 0.0 0.00 0.00 0.00 49 1019.8
20260903165659 22 256 1.6 0.0 0.00 0.00 0.00 49 1019.7
20260903165201 23 360 1.6 0.0 0.00 0.00 0.00 49 1019.7
20260903164705 23 360 1.6 0.0 0.00 0.00 0.00 49 1019.7
20260903164211 23 128 3.2 0.0 0.00 0.00 0.00 48 1019.7
20260903163713 23 360 3.2 0.0 0.00 0.00 0.00 48 1019.7
20260903163157 23 360 1.6 0.0 0.00 0.00 0.00 48 1019.7
20260903162700 23 360 1.6 0.0 0.00 0.00 0.00 48 1019.7
20260903162203 23 360 3.2 0.0 0.00 0.00 0.00 48 1019.7
20260903161655 23 288 4.8 0.0 0.00 0.00 0.00 48 1019.7
20260903161205 23 251 3.2 0.0 0.00 0.00 0.00 48 1019.7
20260903160700 23 233 3.2 0.0 0.00 0.00 0.00 48 1019.7
20260903160154 23 296 6.4 0.0 0.00 0.00 0.00 48 1019.7
20260903155703 23 250 8.0 0.0 0.00 0.00 0.00 47 1019.5
20260903155206 24 265 9.7 0.0 0.00 0.00 0.00 46 1019.5
20260903154709 24 360 9.7 0.0 0.00 0.00 0.00 46 1019.5
20260903154159 24 360 8.0 0.0 0.00 0.00 0.00 47 1019.5
20260903153708 24 229 6.4 0.0 0.00 0.00 0.00 46 1019.5
20260903153209 24 273 8.0 0.0 0.00 0.00 0.00 46 1019.5
20260903152654 24 360 11.3 0.0 0.00 0.00 0.00 47 1019.7
20260903152201 23 360 8.0 0.0 0.00 0.00 0.00 47 1019.7
20260903151711 23 236 6.4 0.0 0.00 0.00 0.00 48 1019.7
20260903151211 23 360 9.7 0.0 0.00 0.00 0.00 48 1019.4
20260903150702 23 234 11.3 0.0 0.00 0.00 0.00 47 1019.4
20260903150157 24 276 8.0 0.0 0.00 0.00 0.00 47 1019.4
20260903145651 24 219 6.4 0.0 0.00 0.00 0.00 45 1019.4
20260903145207 24 179 8.0 0.0 0.00 0.00 0.00 47 1019.4
20260903144703 24 283 4.8 0.0 0.00 0.00 0.00 46 1019.4
20260903144203 24 360 4.8 0.0 0.00 0.00 0.00 47 1019.6
20260903143706 23 230 8.0 0.0 0.00 0.00 0.00 47 1019.6
20260903143211 23 276 9.7 0.0 0.00 0.00 0.00 46 1019.6
20260903142659 23 360 9.7 0.0 0.00 0.00 0.00 47 1019.7
20260903142205 23 277 9.7 0.0 0.00 0.00 0.00 47 1019.7
20260903141653 23 360 8.0 0.0 0.00 0.00 0.00 47 1019.7
20260903141212 23 167 8.0 0.0 0.00 0.00 0.00 45 1019.8
20260903140700 23 280 8.0 0.0 0.00 0.00 0.00 45 1019.8
20260903140205 24 274 6.4 0.0 0.00 0.00 0.00 45 1019.8
20260903135711 23 207 8.0 0.0 0.00 0.00 0.00 45 1019.9
20260903135213 23 252 8.0 0.0 0.00 0.00 0.00 44 1019.9
20260903134656 23 360 6.4 0.0 0.00 0.00 0.00 46 1019.9
20260903134205 23 282 4.8 0.0 0.00 0.00 0.00 46 1019.8
20260903133704 23 360 4.8 0.0 0.00 0.00 0.00 49 1019.8
20260903133207 23 173 8.0 0.0 0.00 0.00 0.00 48 1019.8
20260903132656 23 281 11.3 0.0 0.00 0.00 0.00 50 1020.1
20260903132159 23 265 11.3 0.0 0.00 0.00 0.00 50 1020.1
20260903131710 23 163 9.7 0.0 0.00 0.00 0.00 49 1020.1
20260903131209 23 296 8.0 0.0 0.00 0.00 0.00 48 1020.0
20260903130714 23 360 4.8 0.0 0.00 0.00 0.00 49 1020.0
20260903130209 23 272 6.4 0.0 0.00 0.00 0.00 49 1020.0
20260903125708 23 203 11.3 0.0 0.00 0.00 0.00 50 1019.9
20260903125200 23 360 9.7 0.0 0.00 0.00 0.00 50 1019.9
20260903124655 23 267 6.4 0.0 0.00 0.00 0.00 50 1019.9
20260903124209 23 215 6.4 0.0 0.00 0.00 0.00 50 1019.9
20260903123703 23 289 9.7 0.0 0.00 0.00 0.00 50 1019.9
20260903123205 23 360 12.9 0.0 0.00 0.00 0.00 49 1019.9
20260903122708 23 281 14.5 0.0 0.00 0.00 0.00 47 1019.9
20260903122153 23 360 14.5 0.0 0.00 0.00 0.00 49 1019.9
20260903121705 23 277 16.1 0.0 0.00 0.00 0.00 48 1019.9
20260903121206 23 294 14.5 0.0 0.00 0.00 0.00 49 1020.0
20260903120708 23 283 14.5 0.0 0.00 0.00 0.00 47 1020.0
20260903120212 23 273 12.9 0.0 0.00 0.00 0.00 47 1020.0
20260903115657 23 246 11.3 0.0 0.00 0.00 0.00 49 1019.9
20260903115200 24 0.0 0.0 0.00 0.00 0.00 49 1019.9
20260903114701 24 360 8.0 0.0 0.00 0.00 0.00 48 1019.9
20260903114207 24 161 8.0 0.0 0.00 0.00 0.00 50 1020.1
20260903113712 24 360 9.7 0.0 0.00 0.00 0.00 48 1020.1
20260903113211 24 273 9.7 0.0 0.00 0.00 0.00 48 1020.1
20260903112656 24 279 11.3 0.0 0.00 0.00 0.00 48 1020.3
20260903112211 24 360 12.9 0.0 0.00 0.00 0.00 47 1020.3
20260903111704 24 279 12.9 0.0 0.00 0.00 0.00 48 1020.3
20260903111153 24 254 12.9 0.0 0.00 0.00 0.00 48 1020.1
20260903110659 23 291 12.9 0.0 0.00 0.00 0.00 49 1020.1
20260903110200 24 300 11.3 0.0 0.00 0.00 0.00 49 1020.1
20260903105659 24 95 8.0 0.0 0.00 0.00 0.00 51 1020.5
20260903105210 23 233 11.3 0.0 0.00 0.00 0.00 52 1020.5
20260903104657 23 360 12.9 0.0 0.00 0.00 0.00 52 1020.5
20260903104200 23 360 6.4 0.0 0.00 0.00 0.00 53 1020.4
20260903103712 23 157 6.4 0.0 0.00 0.00 0.00 53 1020.4
20260903103211 23 211 9.7 0.0 0.00 0.00 0.00 53 1020.4
20260903102714 23 360 12.9 0.0 0.00 0.00 0.00 53 1020.5
20260903102205 23 297 12.9 0.0 0.00 0.00 0.00 54 1020.5
20260903101656 23 288 11.3 0.0 0.00 0.00 0.00 52 1020.5
20260903101211 23 275 6.4 0.0 0.00 0.00 0.00 53 1020.4
20260903100659 23 297 4.8 0.0 0.00 0.00 0.00 53 1020.4
20260903100207 23 211 9.7 0.0 0.00 0.00 0.00 53 1020.4
20260903095700 22 360 12.9 0.0 0.00 0.00 0.00 54 1020.5
20260903095201 22 272 11.3 0.0 0.00 0.00 0.00 55 1020.5
20260903094708 22 360 8.0 0.0 0.00 0.00 0.00 54 1020.5
20260903094156 22 283 8.0 0.0 0.00 0.00 0.00 54 1020.6
20260903093703 22 259 8.0 0.0 0.00 0.00 0.00 54 1020.6
20260903093214 22 292 8.0 0.0 0.00 0.00 0.00 54 1020.6
20260903092658 22 308 9.7 0.0 0.00 0.00 0.00 54 1020.9
20260903092202 22 360 11.3 0.0 0.00 0.00 0.00 55 1020.9
20260903091703 21 286 11.3 0.0 0.00 0.00 0.00 56 1020.9
20260903091158 21 304 11.3 0.0 0.00 0.00 0.00 56 1020.9
20260903090702 21 275 12.9 0.0 0.00 0.00 0.00 56 1020.9
20260903090207 21 360 9.7 0.0 0.00 0.00 0.00 56 1020.9
20260903085659 21 360 6.4 0.0 0.00 0.00 0.00 57 1020.9
20260903085204 21 201 6.4 0.0 0.00 0.00 0.00 58 1020.9
20260903084710 21 281 9.7 0.0 0.00 0.00 0.00 57 1020.9
20260903084211 21 302 8.0 0.0 0.00 0.00 0.00 57 1020.9
20260903083700 21 275 6.4 0.0 0.00 0.00 0.00 58 1020.9
20260903083205 21 360 8.0 0.0 0.00 0.00 0.00 58 1020.9
20260903082714 20 310 8.0 0.0 0.00 0.00 0.00 59 1020.7
20260903082156 20 271 6.4 0.0 0.00 0.00 0.00 58 1020.7
20260903081658 20 318 6.4 0.0 0.00 0.00 0.00 60 1020.7
20260903081158 20 277 6.4 0.0 0.00 0.00 0.00 59 1020.6
20260903080702 20 360 3.2 0.0 0.00 0.00 0.00 61 1020.6
20260903080208 20 152 1.6 0.0 0.00 0.00 0.00 61 1020.6